Current weather by "City, St" or "zip code"  
 
Advertise Here

Current Conditions: Oceanside, Camp Pendleton, Marine Corps Air Station, CA

A Few Clouds


53.0 F

Last Updated on Nov 23 2020, 6:55 pm PST
Humidity: 74%
Wind Speed: NE 3.5 mph
Barometer 29.93 in
Dewpoint: 45.0 F
Visibility: 10.00 mi
Precip: --
Heat Index: NA
Wind Chill: NA
Current conditions at:

Oceanside, Camp Pendleton, Marine Corps Air Station, CA (KNFG)

Lat: 33.30472 Lon: 117.35389

Local Radar Image active severe weather and emergency alerts image image weather storm and storm spotter reports image weather observation monitoring service image
Local
Radar
Active
Alerts
Storm Reports Obs
Monitoring

Sign-up For Email & Text Message Weather Alert Notification Services


Advertise Here

Observation History for Oceanside, Camp Pendleton, Marine Corps Air Station, CA


Time Wind
(mph)
Vis
(mi)
Weather Precip (in) Temperature (F) Relative
Humidity
Wind
Chill
(F)
Heat
Index
(F)
Pressure
Air Dwpt altimeter
(in)
sea level
(mb)
Rmks
6:55 pm PST NE 3.5 10.00 A Few Clouds -- 53.0 45.0 74% NA NA 29.93 1013.5
5:55 pm PST N 0.0 10.00 A Few Clouds -- 54.0 45.0 72% NA NA 29.92 1013.0
4:55 pm PST N 0.0 10.00 A Few Clouds -- 60.0 48.0 65% NA NA 29.89 1012.2
3:55 pm PST SW 5.8 10.00 A Few Clouds -- 63.0 46.9 56% 63 NA 29.88 1011.6
1:55 pm PST SW 6.9 10.00 Mostly Cloudy -- 65.0 48.0 54% NA NA 29.87 1011.5
11:55 am PST SW 4.6 10.00 Overcast -- 63.0 48.0 58% 64 NA 29.91 1012.6
10:55 am PST N 0.0 10.00 Overcast -- 63.0 48.0 58% NA NA 29.92 1013.1
9:55 am PST N 0.0 10.00 Overcast -- 61.0 48.0 63% NA NA 29.94 1013.6
8:55 am PST N 0.0 10.00 Overcast -- 58.0 46.9 67% NA NA 29.93 1013.5
7:55 am PST NE 4.6 10.00 Overcast -- 55.0 45.0 69% 54 NA 29.93 1013.4
6:55 am PST E 3.5 9.00 Overcast -- 51.0 45.0 80% NA NA 29.91 1012.9
5:55 am PST NE 5.8 0.50 Sky Obscured with Haze -- 52.0 45.0 77% 50 NA 29.90 1012.4
4:55 am PST NE 6.9 0.50 Sky Obscured with Haze -- 52.0 44.1 75% 50 NA 29.89 1012.2
3:55 am PST NE 4.6 1.50 Overcast with Haze -- 56.0 46.9 72% 55 NA 29.87 1011.5
2:55 am PST NE 4.6 4.00 Overcast with Haze -- 55.0 48.0 77% 54 NA 29.87 1011.5
1:55 am PST N 0.0 9.00 Overcast -- 54.0 46.0 75% NA NA 29.89 1012.0
12:55 am PST NE 4.6 10.00 Overcast -- 54.0 45.0 72% 53 NA 29.90 1012.3
10:55 pm PST NE 4.6 8.00 Mostly Cloudy -- 52.0 44.1 75% 51 NA 29.91 1012.8
9:55 pm PST N 0.0 8.00 Fair -- 50.0 43.0 77% NA NA 29.91 1012.7
8:55 pm PST NE 4.6 10.00 Fair -- 55.0 46.0 72% 54 NA 29.91 1012.6
7:55 pm PST NE 4.6 10.00 Fair -- 54.0 46.9 77% 53 NA 29.91 1012.7

Regional Weather Observation


John Wayne-Orange County Airport, CA (KSNA)

Partly Cloudy
58.0 F

Oceanside, Camp Pendleton, Marine Corps Air Station, CA (KNFG)

A Few Clouds
53.0 F

Oceanside, Oceanside Municipal Airport, CA (KOKB)

Overcast
51.0 F

Corona Airport, CA (KAJO)

Fair
55.0 F

Riverside / March Air Force Base, CA (KRIV)

Fair
52.0 F

Carlsbad, McClellan-Palomar Airport, CA (KCRQ)

Partly Cloudy
58.0 F